Time,TemperatureF,DewpointF,PressureIn,WindDirection,WindDirectionDegrees,WindSpeedMPH,WindSpeedGustMPH,Humidity,HourlyPrecipIn,Conditions,Clouds,dailyrainin,SolarRadiationWatts/m^2,SoftwareType,DateUTC
2013-09-21 00:22:00,39.0,25.0,-100.00,East,99,3.0,4.0,56,0.00,,,0.00,0.000000,,2013-09-21 06:22:00,
2013-09-21 00:32:00,39.0,25.0,-100.00,East,99,3.0,4.0,56,0.00,,,0.00,0.000000,,2013-09-21 06:32:00,
2013-09-21 00:42:00,39.0,25.0,-100.00,East,99,3.0,4.0,56,0.00,,,0.00,0.000000,,2013-09-21 06:42:00,
2013-09-21 00:52:00,39.0,25.0,-100.00,East,99,3.0,4.0,56,0.00,,,0.00,0.000000,,2013-09-21 06:52:00,
2013-09-21 01:22:00,36.0,23.0,-100.00,ENE,62,1.0,5.0,59,0.00,,,0.00,0.000000,,2013-09-21 07:22:00,
2013-09-21 01:32:00,36.0,23.0,-100.00,ENE,62,1.0,5.0,59,0.00,,,0.00,0.000000,,2013-09-21 07:32:00,
2013-09-21 01:42:00,36.0,23.0,-100.00,ENE,62,1.0,5.0,59,0.00,,,0.00,0.000000,,2013-09-21 07:42:00,
2013-09-21 01:52:00,36.0,23.0,-100.00,ENE,62,1.0,5.0,59,0.00,,,0.00,0.000000,,2013-09-21 07:52:00,
2013-09-21 02:22:00,36.0,24.0,-100.00,ESE,118,3.0,5.0,62,0.00,,,0.00,0.000000,,2013-09-21 08:22:00,
2013-09-21 02:32:00,36.0,24.0,-100.00,ESE,118,3.0,5.0,62,0.00,,,0.00,0.000000,,2013-09-21 08:32:00,
2013-09-21 02:42:00,36.0,24.0,-100.00,ESE,118,3.0,5.0,62,0.00,,,0.00,0.000000,,2013-09-21 08:42:00,
2013-09-21 02:52:00,36.0,24.0,-100.00,ESE,118,3.0,5.0,62,0.00,,,0.00,0.000000,,2013-09-21 08:52:00,
2013-09-21 03:22:00,34.0,23.0,-100.00,ESE,108,3.0,5.0,65,0.00,,,0.00,0.000000,,2013-09-21 09:22:00,
2013-09-21 03:33:00,34.0,23.0,-100.00,ESE,108,3.0,5.0,65,0.00,,,0.00,0.000000,,2013-09-21 09:33:00,
2013-09-21 03:43:00,34.0,23.0,-100.00,ESE,108,3.0,5.0,65,0.00,,,0.00,0.000000,,2013-09-21 09:43:00,
2013-09-21 03:53:00,34.0,23.0,-100.00,ESE,108,3.0,5.0,65,0.00,,,0.00,0.000000,,2013-09-21 09:53:00,
2013-09-21 04:23:00,34.0,25.0,-100.00,East,88,2.0,7.0,68,0.00,,,0.00,0.000000,,2013-09-21 10:23:00,
2013-09-21 04:33:00,34.0,25.0,-100.00,East,88,2.0,7.0,68,0.00,,,0.00,0.000000,,2013-09-21 10:33:00,
2013-09-21 04:42:00,34.0,25.0,-100.00,East,88,2.0,7.0,68,0.00,,,0.00,0.000000,,2013-09-21 10:42:00,
2013-09-21 04:52:00,34.0,25.0,-100.00,East,88,2.0,7.0,68,0.00,,,0.00,0.000000,,2013-09-21 10:52:00,
2013-09-21 05:23:00,35.0,27.0,-100.00,ESE,123,2.0,5.0,71,0.00,,,0.00,0.000000,,2013-09-21 11:23:00,
2013-09-21 05:33:00,35.0,27.0,-100.00,ESE,123,2.0,5.0,71,0.00,,,0.00,0.000000,,2013-09-21 11:33:00,
2013-09-21 05:42:00,35.0,27.0,-100.00,ESE,123,2.0,5.0,71,0.00,,,0.00,0.000000,,2013-09-21 11:42:00,
2013-09-21 05:52:00,35.0,27.0,-100.00,ESE,123,2.0,5.0,71,0.00,,,0.00,0.000000,,2013-09-21 11:52:00,
2013-09-21 06:22:00,36.0,28.0,-100.00,ESE,117,2.0,8.0,72,0.00,,,0.00,0.000000,,2013-09-21 12:22:00,
2013-09-21 06:32:00,36.0,28.0,-100.00,ESE,117,2.0,8.0,72,0.00,,,0.00,0.000000,,2013-09-21 12:32:00,
2013-09-21 06:42:00,36.0,28.0,-100.00,ESE,117,2.0,8.0,72,0.00,,,0.00,0.000000,,2013-09-21 12:42:00,
2013-09-21 06:52:00,36.0,28.0,-100.00,ESE,117,2.0,8.0,72,0.00,,,0.00,0.000000,,2013-09-21 12:52:00,
2013-09-21 07:21:00,35.0,28.0,-100.00,ENE,78,1.0,5.0,74,0.00,,,0.00,1.000000,,2013-09-21 13:21:00,
2013-09-21 07:32:00,35.0,28.0,-100.00,ENE,78,1.0,5.0,74,0.00,,,0.00,1.000000,,2013-09-21 13:32:00,
2013-09-21 07:42:00,35.0,28.0,-100.00,ENE,78,1.0,5.0,74,0.00,,,0.00,1.000000,,2013-09-21 13:42:00,
2013-09-21 07:52:00,35.0,28.0,-100.00,ENE,78,1.0,5.0,74,0.00,,,0.00,1.000000,,2013-09-21 13:52:00,
2013-09-21 08:22:00,38.0,28.0,-100.00,East,90,2.0,4.0,68,0.00,,,-99.99,11.000000,,2013-09-21 14:22:00,
2013-09-21 08:32:00,38.0,28.0,-100.00,East,90,2.0,4.0,68,0.00,,,-99.99,11.000000,,2013-09-21 14:32:00,
2013-09-21 08:42:00,38.0,28.0,-100.00,East,90,2.0,4.0,68,0.00,,,-99.99,11.000000,,2013-09-21 14:42:00,
2013-09-21 08:52:00,38.0,28.0,-100.00,East,90,2.0,4.0,68,0.00,,,-99.99,11.000000,,2013-09-21 14:52:00,
2013-09-21 09:22:00,50.0,34.0,-100.00,NNW,333,0.0,7.0,53,0.00,,,0.00,187.000000,,2013-09-21 15:22:00,
2013-09-21 09:34:00,50.0,34.0,-100.00,NNW,333,0.0,7.0,53,0.00,,,0.00,187.000000,,2013-09-21 15:34:00,
2013-09-21 09:45:00,50.0,34.0,-100.00,NNW,333,0.0,7.0,53,0.00,,,0.00,187.000000,,2013-09-21 15:45:00,
2013-09-21 09:55:00,50.0,34.0,-100.00,NNW,333,0.0,7.0,53,0.00,,,0.00,187.000000,,2013-09-21 15:55:00,
2013-09-21 10:43:00,59.0,30.0,-100.00,NNW,341,5.0,10.0,33,0.00,,,0.00,429.000000,,2013-09-21 16:43:00,
2013-09-21 10:54:00,59.0,30.0,-100.00,NNW,341,5.0,10.0,33,0.00,,,0.00,429.000000,,2013-09-21 16:54:00,
2013-09-21 11:23:00,62.0,32.0,-100.00,NW,318,7.0,13.0,32,0.00,,,0.00,558.000000,,2013-09-21 17:23:00,
2013-09-21 11:34:00,62.0,32.0,-100.00,NW,318,7.0,13.0,32,0.00,,,0.00,558.000000,,2013-09-21 17:34:00,
2013-09-21 11:43:00,62.0,32.0,-100.00,NW,318,7.0,13.0,32,0.00,,,0.00,558.000000,,2013-09-21 17:43:00,
2013-09-21 11:52:00,62.0,32.0,-100.00,NW,318,7.0,13.0,32,0.00,,,0.00,558.000000,,2013-09-21 17:52:00,
2013-09-21 12:22:00,60.0,30.0,-100.00,NNW,335,6.0,15.0,32,0.00,,,0.00,629.000000,,2013-09-21 18:22:00,
2013-09-21 12:32:00,60.0,30.0,-100.00,NNW,335,6.0,15.0,32,0.00,,,0.00,629.000000,,2013-09-21 18:32:00,
2013-09-21 12:42:00,60.0,30.0,-100.00,NNW,335,6.0,15.0,32,0.00,,,0.00,629.000000,,2013-09-21 18:42:00,
2013-09-21 12:52:00,60.0,30.0,-100.00,NNW,335,6.0,15.0,32,0.00,,,0.00,629.000000,,2013-09-21 18:52:00,
2013-09-21 13:22:00,64.0,32.0,-100.00,WNW,303,6.0,15.0,30,0.00,,,0.00,571.000000,,2013-09-21 19:22:00,
2013-09-21 13:32:00,64.0,32.0,-100.00,WNW,303,6.0,15.0,30,0.00,,,0.00,571.000000,,2013-09-21 19:32:00,
2013-09-21 13:42:00,64.0,32.0,-100.00,WNW,303,6.0,15.0,30,0.00,,,0.00,571.000000,,2013-09-21 19:42:00,
2013-09-21 13:52:00,64.0,32.0,-100.00,WNW,303,6.0,15.0,30,0.00,,,0.00,571.000000,,2013-09-21 19:52:00,
2013-09-21 14:22:00,64.0,29.0,-100.00,NW,312,5.0,15.0,27,0.00,,,0.00,396.000000,,2013-09-21 20:22:00,
2013-09-21 14:32:00,64.0,29.0,-100.00,NW,312,5.0,15.0,27,0.00,,,0.00,396.000000,,2013-09-21 20:32:00,
2013-09-21 14:42:00,64.0,29.0,-100.00,NW,312,5.0,15.0,27,0.00,,,0.00,396.000000,,2013-09-21 20:42:00,
2013-09-21 14:52:00,64.0,29.0,-100.00,NW,312,5.0,15.0,27,0.00,,,0.00,396.000000,,2013-09-21 20:52:00,
2013-09-21 15:22:00,69.0,31.0,-100.00,WSW,252,7.0,17.0,24,0.00,,,0.00,805.000000,,2013-09-21 21:22:00,
2013-09-21 15:34:00,69.0,31.0,-100.00,WSW,252,7.0,17.0,24,0.00,,,0.00,805.000000,,2013-09-21 21:34:00,
2013-09-21 15:44:00,69.0,31.0,-100.00,WSW,252,7.0,17.0,24,0.00,,,0.00,805.000000,,2013-09-21 21:44:00,
2013-09-21 15:54:00,69.0,31.0,-100.00,WSW,252,7.0,17.0,24,0.00,,,0.00,805.000000,,2013-09-21 21:54:00,
2013-09-21 16:24:00,68.0,31.0,-100.00,West,271,6.0,14.0,25,0.00,,,0.00,684.000000,,2013-09-21 22:24:00,
2013-09-21 16:33:00,68.0,31.0,-100.00,West,271,6.0,14.0,25,0.00,,,0.00,684.000000,,2013-09-21 22:33:00,
2013-09-21 16:43:00,68.0,31.0,-100.00,West,271,6.0,14.0,25,0.00,,,0.00,684.000000,,2013-09-21 22:43:00,
2013-09-21 16:53:00,68.0,31.0,-100.00,West,271,6.0,14.0,25,0.00,,,0.00,684.000000,,2013-09-21 22:53:00,
2013-09-21 17:23:00,67.0,28.0,-100.00,West,279,8.0,15.0,23,0.00,,,0.00,507.000000,,2013-09-21 23:23:00,
2013-09-21 17:34:00,67.0,28.0,-100.00,West,279,8.0,15.0,23,0.00,,,0.00,507.000000,,2013-09-21 23:34:00,
2013-09-21 17:42:00,67.0,28.0,-100.00,West,279,8.0,15.0,23,0.00,,,0.00,507.000000,,2013-09-21 23:42:00,
2013-09-21 17:52:00,67.0,28.0,-100.00,West,279,8.0,15.0,23,0.00,,,0.00,507.000000,,2013-09-21 23:52:00,
2013-09-21 18:22:00,65.0,26.0,-100.00,SW,235,6.0,16.0,23,0.00,,,0.00,299.000000,,2013-09-22 00:22:00,
2013-09-21 18:32:00,65.0,26.0,-100.00,SW,235,6.0,16.0,23,0.00,,,0.00,299.000000,,2013-09-22 00:32:00,
2013-09-21 18:43:00,65.0,26.0,-100.00,SW,235,6.0,16.0,23,0.00,,,0.00,299.000000,,2013-09-22 00:43:00,
2013-09-21 18:52:00,65.0,26.0,-100.00,SW,235,6.0,16.0,23,0.00,,,0.00,299.000000,,2013-09-22 00:52:00,
2013-09-21 19:21:00,57.0,27.0,-100.00,ESE,102,1.0,9.0,32,0.00,,,0.00,86.000000,,2013-09-22 01:21:00,
2013-09-21 19:32:00,57.0,27.0,-100.00,ESE,102,1.0,9.0,32,0.00,,,0.00,86.000000,,2013-09-22 01:32:00,
2013-09-21 19:42:00,57.0,27.0,-100.00,ESE,102,1.0,9.0,32,0.00,,,0.00,86.000000,,2013-09-22 01:42:00,
2013-09-21 19:52:00,57.0,27.0,-100.00,ESE,102,1.0,9.0,32,0.00,,,0.00,86.000000,,2013-09-22 01:52:00,
2013-09-21 20:22:00,49.0,30.0,-100.00,ESE,117,4.0,6.0,47,0.00,,,-99.99,1.000000,,2013-09-22 02:22:00,
2013-09-21 20:32:00,49.0,30.0,-100.00,ESE,117,4.0,6.0,47,0.00,,,-99.99,1.000000,,2013-09-22 02:32:00,
2013-09-21 20:42:00,49.0,30.0,-100.00,ESE,117,4.0,6.0,47,0.00,,,-99.99,1.000000,,2013-09-22 02:42:00,
2013-09-21 20:52:00,49.0,30.0,-100.00,ESE,117,4.0,6.0,47,0.00,,,-99.99,1.000000,,2013-09-22 02:52:00,
2013-09-21 21:22:00,47.0,29.0,-100.00,SE,137,3.0,5.0,50,0.00,,,0.00,0.000000,,2013-09-22 03:22:00,
2013-09-21 21:34:00,47.0,29.0,-100.00,SE,137,3.0,5.0,50,0.00,,,0.00,0.000000,,2013-09-22 03:34:00,
2013-09-21 21:45:00,47.0,29.0,-100.00,SE,137,3.0,5.0,50,0.00,,,0.00,0.000000,,2013-09-22 03:45:00,
2013-09-21 21:54:00,47.0,29.0,-100.00,SE,137,3.0,5.0,50,0.00,,,0.00,0.000000,,2013-09-22 03:54:00,
2013-09-21 22:23:00,44.0,29.0,-100.00,ESE,119,2.0,4.0,56,0.00,,,0.00,0.000000,,2013-09-22 04:23:00,
2013-09-21 22:33:00,44.0,29.0,-100.00,ESE,119,2.0,4.0,56,0.00,,,0.00,0.000000,,2013-09-22 04:33:00,
2013-09-21 22:44:00,44.0,29.0,-100.00,ESE,119,2.0,4.0,56,0.00,,,0.00,0.000000,,2013-09-22 04:44:00,
2013-09-21 22:54:00,44.0,29.0,-100.00,ESE,119,2.0,4.0,56,0.00,,,0.00,0.000000,,2013-09-22 04:54:00,
2013-09-21 23:23:00,42.0,29.0,-100.00,ESE,115,2.0,5.0,60,0.00,,,0.00,0.000000,,2013-09-22 05:23:00,
2013-09-21 23:34:00,42.0,29.0,-100.00,ESE,115,2.0,5.0,60,0.00,,,0.00,0.000000,,2013-09-22 05:34:00,
2013-09-21 23:43:00,42.0,29.0,-100.00,ESE,115,2.0,5.0,60,0.00,,,0.00,0.000000,,2013-09-22 05:43:00,
2013-09-21 23:53:00,42.0,29.0,-100.00,ESE,115,2.0,5.0,60,0.00,,,0.00,0.000000,,2013-09-22 05:53:00,